Regional Weather Roundup
Issued by NWS

Home | Current Version | Previous Version | Graphics & Text | Print | Product List | Glossary On
Versions: 1 2 3 4 5 6 7 8 9 10 11 12 13 14 15 16 17 18 19 20 21 22 23 24 25 26 27 28 29 30 31 32 33 34 35 36 37 38 39 40 41 42 43 44 45 46 47 48 49 50
000
ASUS45 KSLC 300410
RWRUT

UTAH REGIONAL WEATHER ROUNDUP
NATIONAL WEATHER SERVICE SALT LAKE CITY UT
1000 PM MDT SUN MAR 29 2015

UTZ001>011-023>025-300500-

NORTHERN UTAH

CITY           SKY/WX    TMP DP  RH WIND       PRES   REMARKS
BRIGHAM CITY   CLEAR     51  30  45 CALM      30.21S
HILL AFB       NOT AVBL
LOGAN          CLEAR     50  23  34 SE7       30.20S
OGDEN          CLEAR     51  17  26 N6        30.19S
PROVO AIRPORT  CLEAR     54  27  35 N7        30.20S
SALT LAKE CITY CLEAR     52  30  43 SE5       30.19F
VERNAL         CLEAR     50  21  32 W7        30.18R
WENDOVER       CLEAR     48  12  23 W7        30.19F
HEBER CITY     CLEAR     43  19  39 E8        30.24R
WEST JORDAN    CLEAR     48  23  37 SW8       30.21F

$$

UTZ012>022-026-027-300500-

SOUTHERN/CENTRAL UTAH

CITY           SKY/WX    TMP DP  RH WIND       PRES   REMARKS
BLANDING       PTCLDY    52  16  24 N13       30.26S
BRYCE CANYON   CLEAR     38  29  70 SW5       30.31R WCI  34
CEDAR CITY     PTCLDY    53  22  29 CALM      30.18R
DELTA          PTCLDY    53  14  20 NE6       30.17S
HANKSVILLE     MOCLDY    61  12  15 NE5       30.15R
MILFORD        MOCLDY    50  17  27 E5        30.16R
MOAB/CYNLANDS  CLEAR     51   4  14 SW6       30.11R
PRICE          CLEAR     57   6  13 NW8       30.19R
ST GEORGE      CLEAR     68  25  19 S5        30.06R
KANAB          CLEAR     55  23  28 NE6       30.18R

$$

REGIONAL REPORTS     COLORADO/ARIZONA

CITY           SKY/WX    TMP DP  RH WIND       PRES   REMARKS
CRAIG, CO      CLEAR     40  25  55 CALM      30.22R
GRAND JUNCTION CLEAR     54  11  18 CALM      30.14R
RIFLE          CLEAR     48  14  25 E6        30.19R
MONTROSE       PTCLDY    51  17  26 SE12      30.22R
CORTEZ         CLEAR     47  17  30 NE7       30.22R
PAGE, AZ       CLOUDY    69  22  16 S3        30.10R
GRAND CANYON   PTCLDY    46  21  37 CALM      30.27R
KINGMAN        MOCLDY    63  24  22 S12       30.09R
FLAGSTAFF      PTCLDY    45  22  40 CALM      30.30R

$$

REGIONAL REPORTS    NEVADA/IDAHO/WYOMING

CITY           SKY/WX    TMP DP  RH WIND       PRES   REMARKS
LAS VEGAS, NV  PTCLDY    80  21  11 SW7       29.95R
ELY            PTCLDY    49  15  25 CALM      30.21R
ELKO           CLEAR     50   4  15 E6        30.17R
POCATELLO, ID  CLEAR     46  17  31 S9        30.20S
BURLEY         CLEAR     45  23  42 S6        30.19R
EVANSTON, WY   CLEAR     42  15  33 SW8       30.28F
ROCK SPRINGS   CLEAR     45  13  27 S9        30.23S
KEMMERER       CLEAR     41  14  33 CALM      30.28R

$$


USA.gov is the U.S. government's official web portal to all federal, state and local government web resources and services.